SCP
-0 0 -0 -0 -1 -1 -1 -0 -0 -0 0 0 0 0 0 0 0 0 0 0 0 0 0 0 0 0 -0 0 0 0 0 0 0
-0 -0 -0 -0 -1 -1 -1 -1 -0 -0 0 0 -0 0 0 0 0 0 0 0 0 0 0 0 0 0 0 0 0 0 0 -0 -0
-0 -0 -0 -0 -0 -0 -1 -0 -0 -0 -0 0 -0 -0 0 0 0 0 0 0 0 0 0 0 0 0 0 0 0 0 0 -0 0
-0 -0 -0 -1 -0 -0 -1 -0 -0 -0 0 0 -0 -0 -0 -0 0 0 0 0 0 0 0 0 0 0 0 0 0 0 0 -0 -0
-0 -0 -0 -1 -0 -1 -1 -0 -0 -0 0 -0 -0 -0 0 0 0 0 0 0 0 0 0 0 0 0 0 0 0 -0 -0 -0 -0
0 -0 -0 -1 -0 -1 -0 -0 -0 -0 -0 -0 -0 -0 0 0 -0 0 0 0 0 -0 -0 -0 0 0 0 0 0 0 0 -0 -0
-0 -0 -0 -0 -0 -1 -0 -0 -1 -0 -0 0 -0 -0 0 0 0 0 0 0 -0 -0 -0 0 -0 -0 0 0 -0 -0 -0 -0 0
-0 -0 -0 -0 -0 -1 -0 -1 -1 -1 -0 -0 -0 0 0 0 0 0 -0 0 -0 -0 0 -0 -0 0 0 0 0 -0 0 0 -0
-0 -0 -0 -0 -0 -1 -1 -1 -1 -0 -0 -0 -0 0 0 0 0 0 0 0 -0 -0 0 -0 -0 -0 0 -0 -0 -0 -0 -0 0
-0 -0 -0 -0 -0 -1 -1 -1 -1 -0 -0 -0 -0 0 0 0 0 0 0 -0 0 0 0 -0 -0 -0 0 -0 0 -0 -0 -0 0
-0 -0 -0 -0 -0 -1 -1 -1 -0 -0 0 -0 -0 0 0 0 0 0 0 0 0 0 0 0 -0 0 -0 -0 -0 -0 -0 -0 0
-0 -0 0 0 -0 -0 -1 -1 -1 -0 -0 0 -0 -0 -0 0 0 0 0 0 0 0 0 0 0 0 -0 -0 -0 -0 0 0 0
-0 -0 0 0 -0 -0 -0 -1 -2 -1 -1 -0 0 0 -0 -0 0 0 0 0 0 0 0 -0 -0 -0 -0 -0 -0 -0 -0 0 0
0 -0 -0 0 0 -0 -0 -1 -2 -2 -2 -1 -0 -0 -0 -0 0 0 -0 0 0 0 -0 -0 -0 -0 -0 -0 -0 -0 0 0 -0
0 0 0 0 0 0 -1 -1 -2 -2 -2 -1 -1 -1 -0 -0 -0 0 0 -0 0 0 0 -0 -0 -0 -0 -0 -0 -0 -0 0 0
0 0 -0 0 0 1 1 -1 -2 -2 -1 -1 -1 -1 -1 -0 0 0 0 0 0 0 0 -0 -0 -0 -0 -0 -0 0 -0 0 0
0 0 1 0 1 1 2 1 -1 -1 -1 -2 -2 -2 -1 -0 -0 -0 0 0 0 0 0 -0 -0 -0 -0 -0 -0 0 0 0 0
0 1 1 2 1 1 2 2 1 -0 -1 -2 -2 -1 -1 -0 0 0 0 0 0 0 -0 -0 -0 -0 -0 -0 -0 0 0 0 0
0 0 1 2 6 3 3 4 2 1 -0 -2 -2 -1 -0 -0 0 0 0 0 0 0 0 -0 -0 -0 -0 0 -0 -0 -0 0 0
0 1 1 3 9 3 4 4 4 2 1 -0 -1 -1 -1 -0 0 0 0 0 0 0 0 0 0 0 0 0 0 -0 -0 0 0
Wind_Speed_500mb
66 69 50 59 71 66 60 50 48 42 40 31 31 34 28 20 26 37 33 33 29 29 21 19 25 25 16 10 9 11 10 5 6
67 52 41 58 68 66 60 50 50 36 33 33 33 29 31 28 28 33 30 36 31 23 21 18 14 12 9 7 8 1 11 7 10
55 51 66 57 54 48 50 44 48 41 30 36 33 31 32 23 34 32 28 26 20 16 15 13 11 5 7 7 4 6 14 6 6
56 58 63 60 55 53 48 48 50 49 36 37 26 31 36 27 25 29 28 25 23 12 9 9 9 9 8 7 5 10 14 5 5
61 68 59 70 59 59 52 52 51 51 43 42 32 32 36 38 40 28 25 22 9 14 9 11 11 8 9 8 11 9 20 15 14
52 65 54 70 60 56 53 52 54 54 51 44 40 46 45 42 39 28 17 12 16 13 11 10 11 11 11 5 7 10 14 15 15
42 35 43 63 54 55 53 55 58 56 55 51 45 47 43 39 33 16 11 25 25 17 15 18 13 9 8 13 13 13 14 17 20
44 40 45 49 53 59 55 56 57 57 48 56 56 47 46 43 30 23 32 32 23 21 17 15 12 13 15 16 17 13 19 19 16
43 40 49 47 54 66 60 58 58 54 54 50 46 38 35 30 30 41 38 30 22 20 19 18 13 16 19 26 20 15 22 16 16
44 42 49 49 54 69 62 61 59 58 52 49 49 53 50 46 43 39 35 32 29 25 23 17 16 16 26 27 24 21 26 18 15
55 48 51 51 57 66 60 56 54 54 52 47 50 51 49 48 48 45 40 34 33 27 20 23 23 22 27 19 21 24 27 25 18
67 58 59 56 57 65 63 60 58 59 61 59 56 53 49 52 50 48 43 39 33 30 23 24 29 26 20 17 22 26 28 23 18
64 61 61 64 58 61 62 63 63 64 64 59 61 60 54 54 49 50 46 38 36 34 31 31 26 25 22 19 25 33 38 31 15
63 68 66 64 62 68 65 68 68 69 66 63 57 57 63 57 51 46 43 40 37 35 37 32 34 28 25 26 29 37 39 35 28
14 15 74 69 63 71 73 73 72 72 75 67 59 60 62 58 51 51 49 46 42 42 42 43 42 32 31 31 34 40 43 43 37
16 27 74 73 71 75 77 77 80 77 75 72 69 65 66 61 55 53 52 51 49 48 51 49 43 40 38 37 40 46 46 49 41
9 12 3 56 69 79 81 83 78 74 76 75 71 70 68 63 57 56 56 55 53 52 56 52 47 46 46 41 44 48 49 50 45
22 20 3 5 71 79 77 83 85 75 76 77 75 77 71 65 63 65 62 59 57 57 53 53 49 48 48 48 45 50 46 45 47
24 24 15 4 38 70 73 83 86 78 77 80 83 81 78 71 70 72 68 61 59 58 53 49 49 43 39 47 34 35 41 46 45
26 24 18 4 12 55 64 77 83 79 79 85 88 86 78 74 73 74 72 69 69 64 63 53 57 52 49 50 48 43 40 40 47
Wind_Direction_500mb
177 185 173 166 163 164 169 170 177 187 189 190 195 192 186 208 193 189 186 180 189 204 207 209 217 247 239 277 277 294 303 11 68
151 173 150 157 167 166 166 168 182 197 191 189 208 203 190 206 180 166 180 174 191 203 206 206 195 209 239 251 279 313 61 319 290
167 170 166 163 164 170 168 175 180 185 204 190 195 197 187 173 164 164 190 193 180 181 187 189 202 221 203 209 199 166 147 279 71
169 171 163 161 163 170 172 178 180 181 192 190 199 192 171 174 163 196 183 181 177 196 186 186 200 204 206 202 203 143 184 259 94
169 164 160 169 170 164 170 177 179 184 180 195 181 184 179 181 188 187 176 165 218 204 192 175 174 217 185 187 142 136 144 146 112
144 149 157 165 170 164 170 178 180 182 191 190 185 166 161 165 169 169 170 190 200 212 184 205 207 210 191 162 138 138 132 129 111
140 153 156 164 168 166 173 179 182 184 191 187 193 197 189 186 192 197 217 207 218 210 189 198 229 199 176 133 123 121 126 119 98
148 171 169 172 171 167 175 178 183 184 195 201 205 207 221 220 221 193 214 221 213 196 214 218 226 173 140 130 120 136 118 124 118
160 179 169 178 171 164 169 179 183 182 193 206 199 207 213 203 199 208 216 224 217 214 214 233 186 157 134 118 191 171 134 138 152
170 180 170 177 169 168 173 182 189 184 195 203 195 200 202 199 208 211 217 224 217 221 222 216 172 170 164 190 203 176 159 147 142
167 175 172 182 172 171 179 181 185 186 190 199 197 202 203 205 211 218 218 212 216 217 221 184 171 187 205 200 185 174 166 166 154
166 171 173 179 175 177 178 184 186 186 191 200 200 196 200 207 210 209 212 215 209 188 196 178 190 203 206 191 180 175 167 146 157
168 170 174 179 184 176 182 185 189 187 196 205 211 204 200 211 217 218 217 213 204 195 197 195 190 202 203 185 186 176 162 146 173
175 172 174 179 183 177 183 186 191 192 196 206 204 202 210 218 219 222 217 208 205 200 192 188 194 205 199 191 188 177 166 162 161
255 141 173 177 183 180 185 188 191 192 198 206 205 204 215 220 221 217 210 208 204 199 189 196 203 207 200 197 190 187 180 173 174
106 301 194 177 181 183 190 191 197 199 198 200 204 210 217 221 221 209 209 205 204 198 196 208 208 210 205 204 196 192 193 185 187
353 334 41 181 178 181 189 194 201 209 203 203 205 208 215 218 213 207 207 207 208 205 206 209 211 210 207 211 202 201 203 198 197
329 319 289 327 177 182 196 198 200 206 208 205 207 212 214 214 208 206 209 210 212 209 216 218 217 216 207 213 212 211 211 209 207
324 306 315 209 167 183 196 197 199 204 209 210 211 212 214 212 206 208 211 207 211 205 218 216 217 222 215 222 237 229 216 216 211
328 313 275 217 155 197 200 201 200 208 206 212 213 218 218 214 207 210 213 210 213 206 208 213 208 211 219 213 236 237 229 218 216
Wind_Speed_850mb
66 69 50 59 71 66 60 50 48 42 40 31 31 34 28 20 26 37 33 33 29 29 21 19 25 25 16 10 9 11 10 5 6
67 52 41 58 68 66 60 50 50 36 33 33 33 29 31 28 28 33 30 36 31 23 21 18 14 12 9 7 8 1 11 7 10
55 51 66 57 54 48 50 44 48 41 30 36 33 31 32 23 34 32 28 26 20 16 15 13 11 5 7 7 4 6 14 6 6
56 58 63 60 55 53 48 48 50 49 36 37 26 31 36 27 25 29 28 25 23 12 9 9 9 9 8 7 5 10 14 5 5
61 68 59 70 59 59 52 52 51 51 43 42 32 32 36 38 40 28 25 22 9 14 9 11 11 8 9 8 11 9 20 15 14
52 65 54 70 60 56 53 52 54 54 51 44 40 46 45 42 39 28 17 12 16 13 11 10 11 11 11 5 7 10 14 15 15
42 35 43 63 54 55 53 55 58 56 55 51 45 47 43 39 33 16 11 25 25 17 15 18 13 9 8 13 13 13 14 17 20
44 40 45 49 53 59 55 56 57 57 48 56 56 47 46 43 30 23 32 32 23 21 17 15 12 13 15 16 17 13 19 19 16
43 40 49 47 54 66 60 58 58 54 54 50 46 38 35 30 30 41 38 30 22 20 19 18 13 16 19 26 20 15 22 16 16
44 42 49 49 54 69 62 61 59 58 52 49 49 53 50 46 43 39 35 32 29 25 23 17 16 16 26 27 24 21 26 18 15
55 48 51 51 57 66 60 56 54 54 52 47 50 51 49 48 48 45 40 34 33 27 20 23 23 22 27 19 21 24 27 25 18
67 58 59 56 57 65 63 60 58 59 61 59 56 53 49 52 50 48 43 39 33 30 23 24 29 26 20 17 22 26 28 23 18
64 61 61 64 58 61 62 63 63 64 64 59 61 60 54 54 49 50 46 38 36 34 31 31 26 25 22 19 25 33 38 31 15
63 68 66 64 62 68 65 68 68 69 66 63 57 57 63 57 51 46 43 40 37 35 37 32 34 28 25 26 29 37 39 35 28
14 15 74 69 63 71 73 73 72 72 75 67 59 60 62 58 51 51 49 46 42 42 42 43 42 32 31 31 34 40 43 43 37
16 27 74 73 71 75 77 77 80 77 75 72 69 65 66 61 55 53 52 51 49 48 51 49 43 40 38 37 40 46 46 49 41
9 12 3 56 69 79 81 83 78 74 76 75 71 70 68 63 57 56 56 55 53 52 56 52 47 46 46 41 44 48 49 50 45
22 20 3 5 71 79 77 83 85 75 76 77 75 77 71 65 63 65 62 59 57 57 53 53 49 48 48 48 45 50 46 45 47
24 24 15 4 38 70 73 83 86 78 77 80 83 81 78 71 70 72 68 61 59 58 53 49 49 43 39 47 34 35 41 46 45
26 24 18 4 12 55 64 77 83 79 79 85 88 86 78 74 73 74 72 69 69 64 63 53 57 52 49 50 48 43 40 40 47
Wind_Direction_850mb
177 185 173 166 163 164 169 170 177 187 189 190 195 192 186 208 193 189 186 180 189 204 207 209 217 247 239 277 277 294 303 11 68
151 173 150 157 167 166 166 168 182 197 191 189 208 203 190 206 180 166 180 174 191 203 206 206 195 209 239 251 279 313 61 319 290
167 170 166 163 164 170 168 175 180 185 204 190 195 197 187 173 164 164 190 193 180 181 187 189 202 221 203 209 199 166 147 279 71
169 171 163 161 163 170 172 178 180 181 192 190 199 192 171 174 163 196 183 181 177 196 186 186 200 204 206 202 203 143 184 259 94
169 164 160 169 170 164 170 177 179 184 180 195 181 184 179 181 188 187 176 165 218 204 192 175 174 217 185 187 142 136 144 146 112
144 149 157 165 170 164 170 178 180 182 191 190 185 166 161 165 169 169 170 190 200 212 184 205 207 210 191 162 138 138 132 129 111
140 153 156 164 168 166 173 179 182 184 191 187 193 197 189 186 192 197 217 207 218 210 189 198 229 199 176 133 123 121 126 119 98
148 171 169 172 171 167 175 178 183 184 195 201 205 207 221 220 221 193 214 221 213 196 214 218 226 173 140 130 120 136 118 124 118
160 179 169 178 171 164 169 179 183 182 193 206 199 207 213 203 199 208 216 224 217 214 214 233 186 157 134 118 191 171 134 138 152
170 180 170 177 169 168 173 182 189 184 195 203 195 200 202 199 208 211 217 224 217 221 222 216 172 170 164 190 203 176 159 147 142
167 175 172 182 172 171 179 181 185 186 190 199 197 202 203 205 211 218 218 212 216 217 221 184 171 187 205 200 185 174 166 166 154
166 171 173 179 175 177 178 184 186 186 191 200 200 196 200 207 210 209 212 215 209 188 196 178 190 203 206 191 180 175 167 146 157
168 170 174 179 184 176 182 185 189 187 196 205 211 204 200 211 217 218 217 213 204 195 197 195 190 202 203 185 186 176 162 146 173
175 172 174 179 183 177 183 186 191 192 196 206 204 202 210 218 219 222 217 208 205 200 192 188 194 205 199 191 188 177 166 162 161
255 141 173 177 183 180 185 188 191 192 198 206 205 204 215 220 221 217 210 208 204 199 189 196 203 207 200 197 190 187 180 173 174
106 301 194 177 181 183 190 191 197 199 198 200 204 210 217 221 221 209 209 205 204 198 196 208 208 210 205 204 196 192 193 185 187
353 334 41 181 178 181 189 194 201 209 203 203 205 208 215 218 213 207 207 207 208 205 206 209 211 210 207 211 202 201 203 198 197
329 319 289 327 177 182 196 198 200 206 208 205 207 212 214 214 208 206 209 210 212 209 216 218 217 216 207 213 212 211 211 209 207
324 306 315 209 167 183 196 197 199 204 209 210 211 212 214 212 206 208 211 207 211 205 218 216 217 222 215 222 237 229 216 216 211
328 313 275 217 155 197 200 201 200 208 206 212 213 218 218 214 207 210 213 210 213 206 208 213 208 211 219 213 236 237 229 218 216